Simultaneous Nadir Overpasses (SNOs) Predictions

Prediction of SNOs between METOP-B and NOAA-19 Satellite Orbit:

Table of predicted SNOs for the next 14.0 days since TLE Epoch: 4/12/2025
Index Date (METOP-B) Time (METOP-B) Lat,Lon (METOP-B) SZA (METOP-B ) Date (NOAA-19) Time (NOAA-19) Lat,Lon (NOAA-19) SZA (NOAA-19 ) Distance(km) Time Diff (sec)
1 04/17/2025 14:06:08 -80.88,-143.45 103.97 04/17/2025 14:04:52 -80.86,-143.41 104.02 2.62 76
2 04/17/2025 14:56:47 80.83, 24.69 76.13 04/17/2025 14:55:53 80.83, 24.67 76.09 0.48 54
3 04/17/2025 15:47:27 -80.82,-167.86 103.88 04/17/2025 15:46:46 -80.82,-167.95 103.91 1.52 41
4 04/17/2025 16:38:08 80.82, -0.43 76.13 04/17/2025 16:37:49 80.82, -0.60 76.09 3.18 19
5 04/17/2025 17:28:48 -80.81, 167.02 103.87 04/17/2025 17:28:41 -80.80, 167.14 103.86 2.27 7
6 04/17/2025 18:19:29 80.80, -25.54 76.14 04/17/2025 18:19:44 80.80, -25.51 76.15 0.63 15
7 04/17/2025 19:10:09 -80.79, 141.91 103.86 04/17/2025 19:10:37 -80.79, 141.88 103.85 0.51 28
8 04/17/2025 20:00:50 80.79, -50.66 76.14 04/17/2025 20:01:40 80.79, -50.78 76.16 2.21 50



Historial Predications of SNOs between METOP-B and NOAA-19
